Weather History for KOGB - August, 2013

Change the Weather History Date:

Wednesday, August 7, 2013

  Actual Average Record
Temperature  
Mean Temperature 81 °F 81 °F  
Max Temperature 88 °F 91 °F 102 °F (1956)
Min Temperature 73 °F 72 °F 57 °F (2004)
Degree Days  
Heating Degree Days 0 0  
Month to date heating degree days 0 0  
Since 1 June heating degree days 0 1  
Since 1 July heating degree days 0 0  
Cooling Degree Days 16 16  
Month to date cooling degree days 107 116  
Year to date cooling degree days 1269 1338  
Since 1 June cooling degree days 1007 1035  
Growing Degree Days 30 (Base 50)    
Moisture  
Dew Point 70 °F    
Average Humidity 75    
Maximum Humidity 93    
Minimum Humidity 51    
Precipitation  
Precipitation 0.00 in 0.17 in 2.19 in (1952)
Month to date precipitation 0.38 1.23  
Year to date precipitation 38.12 29.26  
Sea Level Pressure  
Sea Level Pressure 30.04 in    
Wind  
Wind Speed 3 mph (ESE)    
Max Wind Speed 9 mph    
Max Gust Speed 12 mph    
Visibility 9 miles    
Events      
T = Trace of Precipitation, MM = Missing Value Source: NWS Daily Summary

Daily Weather History Graph

Daily Weather History Graph

Search for Another Location

Airport or City:

Trip Planner

Search our weather history database for the weather conditions in past years. The results will help you decide how hot, cold, wet, or windy it might be!

Date:

Astronomy

Aug. 07, 2013 Rise Set
Actual Time 6:40 AM EDT 8:17 PM EDT
Civil Twilight 6:13 AM EDT 8:44 PM EDT
Nautical Twilight 5:41 AM EDT 9:16 PM EDT
Astronomical Twilight 5:07 AM EDT 9:49 PM EDT
Moon 7:22 AM EDT (8/7) 8:31 PM EDT (8/7)
Length of Visible Light 14h 30m
Length of Day
13h 37m
New Moon, 1% of the Moon is Illuminated
Aug 7
New Moon
Aug 14
First Quarter
Aug 20
Full
Aug 28
Last Quarter
Sep 5
New

Hourly Weather History & Observations

Time (EDT) Temp. Heat Index Dew Point Humidity Pressure Visibility Wind Dir Wind Speed Gust Speed Precip Events Conditions
12:53 AM 73.9 °F - 71.1 °F 91% 30.04 in 5.0 mi East 3.5 mph - N/A   Partly Cloudy
1:53 AM 73.9 °F - 71.1 °F 91% 30.03 in 8.0 mi SE 3.5 mph - N/A   Mostly Cloudy
2:53 AM 73.0 °F - 71.1 °F 93% 30.02 in 7.0 mi Calm Calm - N/A   Overcast
3:53 AM 73.0 °F - 70.0 °F 90% 30.03 in 8.0 mi Calm Calm - N/A   Mostly Cloudy
4:53 AM 73.0 °F - 70.0 °F 90% 30.03 in 8.0 mi Calm Calm - N/A   Overcast
5:53 AM 73.0 °F - 70.0 °F 90% 30.04 in 9.0 mi Calm Calm - N/A   Overcast
6:53 AM 73.0 °F - 70.0 °F 90% 30.05 in 9.0 mi Calm Calm - N/A   Overcast
7:53 AM 73.9 °F - 70.0 °F 87% 30.06 in 10.0 mi ESE 3.5 mph - N/A   Overcast
8:53 AM 75.0 °F - 70.0 °F 84% 30.07 in 10.0 mi Variable 3.5 mph - N/A   Overcast
9:53 AM 77.0 °F - 69.1 °F 76% 30.08 in 10.0 mi Variable 4.6 mph - N/A   Overcast
10:53 AM 79.0 °F - 70.0 °F 74% 30.08 in 10.0 mi SE 9.2 mph - N/A   Overcast
11:53 AM 82.0 °F 84.9 °F 68.0 °F 62% 30.08 in 10.0 mi Variable 4.6 mph - N/A   Scattered Clouds
12:53 PM 84.0 °F 86.3 °F 66.0 °F 55% 30.09 in 10.0 mi Calm Calm - N/A   Overcast
1:53 PM 84.9 °F 87.6 °F 66.9 °F 55% 30.07 in 10.0 mi Variable 6.9 mph - N/A   Scattered Clouds
2:53 PM 86.0 °F 88.8 °F 66.9 °F 53% 30.05 in 10.0 mi SSE 5.8 mph - N/A   Clear
3:53 PM 88.0 °F 92.9 °F 70.0 °F 55% 30.03 in 10.0 mi Variable 5.8 mph - N/A   Mostly Cloudy
4:53 PM 86.0 °F 90.1 °F 69.1 °F 57% 30.03 in 10.0 mi Variable 5.8 mph - N/A   Mostly Cloudy
5:53 PM 86.0 °F 89.4 °F 68.0 °F 55% 30.01 in 10.0 mi East 4.6 mph - N/A   Clear
6:53 PM 84.9 °F 88.8 °F 69.1 °F 59% 30.01 in 10.0 mi ESE 3.5 mph - N/A   Clear
7:53 PM 82.0 °F 86.3 °F 71.1 °F 69% 30.01 in 10.0 mi Calm Calm - N/A   Clear
8:53 PM 80.1 °F 83.6 °F 71.1 °F 74% 30.01 in 10.0 mi East 3.5 mph - N/A   Partly Cloudy
9:53 PM 78.1 °F - 71.1 °F 79% 30.04 in 10.0 mi Calm Calm - N/A   Clear
10:53 PM 77.0 °F - 71.1 °F 82% 30.05 in 10.0 mi Calm Calm - N/A   Clear
11:53 PM 75.0 °F - 71.1 °F 87% 30.05 in 10.0 mi Calm Calm - N/A   Clear